Probability
0 0 0 0 0 0 0 0 0 0 0 0 0 0 0 0 0 0 0 0 0 0 0 0 0 0 1 2 3 3 3 2 1 0 0 0 0 0
0 0 0 0 0 0 0 0 0 0 0 0 0 0 0 0 0 0 0 0 0 0 0 0 0 0 0 1 3 3 2 1 0 0 0 0 0 0
0 0 0 0 0 0 0 0 0 0 0 0 0 0 0 0 0 0 0 0 0 0 0 0 0 0 0 1 2 2 1 0 0 0 0 0 0 0
0 0 0 0 0 0 0 0 0 0 0 0 0 0 0 0 0 0 0 0 0 0 0 0 0 0 0 0 1 1 1 0 0 0 0 0 0 0
0 0 0 0 0 0 0 0 0 0 0 0 0 0 0 0 0 0 0 0 0 0 0 0 0 0 0 0 0 0 0 0 0 0 0 0 0 0
0 0 0 0 0 0 0 0 0 0 0 0 0 0 0 0 0 0 0 0 0 0 0 0 0 0 0 0 0 0 0 0 0 0 0 0 0 0
0 0 0 0 0 0 0 0 0 0 0 0 0 0 0 0 0 0 0 0 0 0 0 0 0 0 0 0 0 0 0 0 0 0 0 0 0 0
0 0 0 0 0 0 0 0 0 0 0 0 0 0 0 0 0 0 0 0 0 0 0 0 0 0 0 0 0 0 0 0 0 0 0 0 0 0
0 0 0 0 0 0 0 0 0 0 0 0 0 0 0 0 0 0 0 0 0 0 0 0 0 0 0 0 0 0 0 0 0 0 0 0 0 0
0 0 0 0 0 0 0 0 0 0 0 0 0 0 0 0 0 0 0 0 0 0 0 0 0 0 0 0 0 0 0 0 0 0 0 0 0 0
0 0 0 0 0 0 0 0 0 0 0 0 0 0 0 0 0 0 0 0 0 0 0 0 0 0 0 0 0 0 0 0 0 0 0 0 0 0
0 0 0 0 0 0 0 0 0 0 0 0 0 0 0 0 0 0 0 0 0 0 0 0 0 0 0 0 0 0 0 0 0 0 0 0 0 0
0 0 0 0 0 0 0 0 0 0 0 0 0 0 0 0 0 0 0 0 0 0 0 0 0 0 0 0 0 0 0 0 0 0 0 0 0 0
0 0 0 0 0 0 0 0 0 0 0 0 0 0 0 0 0 0 0 0 0 0 0 0 0 0 0 0 0 0 0 0 0 0 0 0 0 0
0 0 0 0 0 0 0 0 0 0 0 0 0 0 0 0 0 0 0 0 0 0 0 0 0 0 0 0 0 0 0 0 0 0 0 0 0 0
0 0 0 0 0 0 0 0 0 0 0 0 0 0 0 0 0 0 0 0 0 0 0 0 0 0 0 0 0 0 0 0 0 0 0 0 0 0
0 0 0 0 0 0 0 0 0 0 0 0 0 0 0 0 0 0 0 0 0 0 0 0 0 0 0 0 0 0 0 0 0 0 0 0 0 0
0 0 0 0 0 0 0 0 0 0 0 0 0 0 0 0 0 0 0 0 0 0 0 0 0 0 0 0 0 0 0 0 0 0 0 0 0 0
0 0 0 0 0 0 0 0 0 0 0 0 0 0 0 0 0 0 0 0 0 0 0 0 0 0 0 0 0 0 0 0 0 0 0 0 0 0
0 0 0 0 0 0 0 0 0 0 0 0 0 0 0 0 0 0 0 0 0 0 0 0 0 0 0 0 0 0 0 0 0 0 0 0 0 0
0 0 0 0 0 0 0 0 0 0 0 0 0 0 0 0 0 0 0 0 0 0 0 0 0 0 0 0 0 0 0 0 0 0 0 0 0 0
0 0 0 0 0 0 0 0 0 0 0 0 0 0 0 0 0 0 0 0 0 0 0 0 0 0 0 0 0 0 0 0 0 0 0 0 0 0
0 0 0 0 0 0 0 0 0 0 0 0 0 0 0 0 0 0 0 0 0 0 0 0 0 0 0 0 0 0 0 0 0 0 0 0 0 0
Wind_Speed
5 6 5 4 4 4 4 4 4 6 7 5 4 5 6 6 8 7 8 12 14 15 15 15 14 13 13 13 13 13 12 12 12 12 13 13 12 12
3 4 4 3 3 3 4 4 5 6 7 5 5 4 5 5 8 7 8 12 14 16 15 14 13 13 14 13 13 13 13 13 13 14 14 13 13 12
3 4 5 4 3 3 3 3 4 4 7 5 3 3 4 5 5 6 6 7 8 14 15 15 14 13 14 14 14 14 14 13 14 14 14 14 14 13
4 4 5 4 5 4 4 5 5 5 6 7 5 4 6 6 6 7 6 6 6 11 14 15 14 13 13 14 14 14 14 14 14 14 15 14 14 14
3 3 4 4 5 4 4 5 5 4 4 6 6 4 4 4 5 5 5 5 6 8 12 14 14 14 14 14 14 14 14 14 14 14 14 14 15 15
3 4 4 5 5 5 5 6 5 5 5 5 6 5 4 3 4 5 5 5 6 6 8 9 11 13 14 14 14 14 14 14 15 15 14 14 13 14
2 3 3 5 6 6 5 5 5 6 5 6 6 5 5 4 5 4 6 5 6 5 5 6 7 7 9 12 14 14 15 15 15 15 15 14 12 12
3 3 3 4 5 7 8 9 8 7 7 7 6 7 8 7 5 5 6 5 6 4 5 7 6 8 7 8 12 15 15 15 15 15 14 13 13 12
3 3 3 4 4 4 5 7 8 9 10 8 9 9 8 7 7 7 7 7 8 4 5 8 6 9 7 8 13 15 16 16 15 15 14 14 13 12
3 3 3 4 4 5 5 5 5 6 7 7 8 8 8 7 8 9 9 8 6 4 5 7 6 7 6 6 12 15 15 16 15 15 15 14 13 12
3 3 4 4 7 7 5 5 6 6 6 8 9 9 9 9 7 5 5 5 6 4 4 5 4 4 4 6 8 13 14 15 15 15 15 14 13 12
3 4 5 6 8 8 5 4 6 6 6 6 6 7 7 7 8 7 6 6 4 4 4 3 3 2 3 3 4 6 8 11 13 14 14 14 13 8
3 4 4 8 9 8 7 5 7 7 5 5 5 5 4 4 4 5 6 6 6 5 4 3 3 3 3 3 3 4 5 5 6 8 11 14 14 10
4 4 4 8 8 8 6 7 8 7 4 4 4 4 4 4 4 5 7 7 6 6 6 5 4 4 4 3 3 2 3 4 4 4 4 9 12 13
4 6 8 8 7 5 6 8 6 4 3 3 4 5 4 5 5 5 5 5 4 4 4 4 4 4 4 4 3 3 3 3 4 5 5 5 5 6
4 5 7 7 5 5 6 5 3 4 4 4 4 5 4 4 4 4 4 3 3 3 3 3 4 5 4 4 4 4 4 5 5 5 4 4 3 4
5 3 3 3 3 3 4 3 3 4 4 4 4 4 4 4 4 3 3 3 3 3 3 2 2 3 4 4 4 5 5 4 5 5 5 4 4 5
4 3 4 3 3 4 4 4 4 4 5 5 5 4 4 4 4 3 3 3 3 3 3 2 1 1 1 2 3 5 5 4 4 5 5 5 6 5
3 3 4 4 4 4 4 4 5 5 5 5 5 5 4 4 4 4 3 3 3 3 3 2 2 2 3 3 2 3 4 4 4 5 5 4 5 5
3 4 4 4 4 4 4 4 5 5 5 5 5 5 4 4 4 4 4 4 4 3 3 2 3 3 4 4 2 1 3 5 5 5 4 2 1 3
4 4 4 5 5 5 5 5 5 5 5 5 5 5 5 4 4 4 4 5 4 3 4 4 4 3 1 2 2 1 1 2 4 4 4 4 3 3
4 5 5 5 5 5 5 4 5 5 5 5 5 5 4 4 4 5 4 4 3 3 3 2 1 1 1 2 2 2 2 2 4 5 4 3 4 6
5 5 5 5 5 5 5 5 5 5 5 5 4 4 4 4 4 4 4 3 3 3 2 1 0 0 1 2 3 3 4 4 3 4 4 5 6 7
Wind_Direction
216 214 215 219 219 222 217 208 219 256 260 239 232 226 226 228 233 229 231 234 236 239 241 243 242 238 237 240 239 239 241 241 240 239 240 241 243 247
219 217 223 222 223 221 224 229 227 242 262 250 237 239 232 239 239 235 236 240 236 237 238 241 241 238 235 234 233 234 236 235 235 236 237 237 239 242
231 230 233 228 229 227 224 225 234 239 260 273 258 249 235 239 243 238 239 238 239 240 240 237 237 239 238 233 230 230 231 231 233 234 235 235 237 238
236 236 238 235 234 235 234 237 238 235 248 269 270 249 237 234 237 239 243 243 241 242 240 238 237 237 238 233 230 229 228 228 230 233 234 234 233 234
241 244 245 235 241 243 242 244 244 247 243 255 264 257 248 238 241 249 246 246 248 248 242 239 238 237 236 234 229 228 228 228 228 231 234 233 230 229
253 247 248 242 243 245 248 246 249 252 252 254 261 261 255 241 232 244 258 248 252 255 247 244 243 239 236 235 231 226 225 227 228 229 230 231 227 224
280 263 260 260 257 255 257 251 247 250 254 256 259 262 255 245 242 241 254 260 259 240 242 239 236 234 230 232 230 226 224 224 226 226 226 224 221 221
305 293 285 279 279 275 269 265 257 252 252 253 257 256 259 253 253 252 251 255 259 224 236 247 234 237 231 226 230 227 224 223 225 224 219 218 216 216
310 303 303 307 307 289 284 281 270 266 259 255 258 260 262 257 251 251 250 252 254 242 240 252 233 240 235 234 233 227 225 222 223 221 217 213 211 212
302 299 292 297 300 298 290 287 278 269 267 258 258 263 261 259 248 248 249 256 265 248 226 249 239 242 243 235 230 227 227 224 220 218 215 211 208 208
308 311 304 294 306 310 297 290 290 285 286 283 283 282 282 274 264 257 248 246 262 254 229 244 248 257 253 242 232 224 225 223 219 215 210 205 202 201
315 312 312 312 314 316 299 292 292 295 301 300 292 289 280 274 266 249 243 242 257 256 225 225 247 239 259 245 230 221 219 221 217 213 205 199 193 190
317 314 311 319 318 315 308 292 293 301 294 289 287 286 284 278 270 258 246 239 242 252 229 216 241 239 232 258 245 221 209 208 206 207 203 198 193 188
310 307 309 321 321 320 313 313 316 314 296 291 289 288 289 284 278 272 262 251 241 242 231 213 232 229 224 237 243 221 213 204 195 197 195 197 197 197
313 315 320 327 324 318 320 324 320 302 295 296 290 284 284 279 278 275 275 267 267 257 230 225 226 229 223 225 219 201 199 208 195 190 189 192 191 186
321 320 322 325 324 321 322 320 312 303 300 287 285 286 288 284 280 276 277 281 283 289 262 239 234 219 230 236 207 203 195 192 192 190 185 189 189 190
319 318 318 321 325 323 320 313 311 311 307 300 294 294 294 289 286 282 276 279 262 265 284 293 268 246 239 224 212 206 196 199 190 180 178 193 202 198
330 321 320 315 314 313 313 313 309 309 305 302 298 294 291 287 290 294 283 272 271 267 269 265 285 321 315 287 228 201 197 196 186 179 177 189 202 199
337 321 319 316 309 307 306 305 304 305 304 302 300 296 294 291 289 288 286 286 285 277 272 253 232 215 227 244 273 200 187 185 178 185 187 188 199 196
324 315 313 313 306 302 303 301 300 303 302 303 302 297 291 289 288 283 276 275 277 279 276 255 234 229 224 216 211 252 196 184 183 187 185 152 113 144
313 308 305 304 304 296 293 294 294 293 295 295 296 296 292 289 286 283 279 285 279 267 262 255 252 261 275 120 122 112 114 155 166 172 166 158 156 160
305 303 301 299 299 296 291 289 290 291 291 289 292 294 293 290 288 285 278 274 272 268 264 267 265 211 159 166 167 151 119 91 83 88 98 138 167 176
304 302 301 301 298 295 292 286 284 285 284 285 289 290 292 291 288 288 287 282 283 286 294 290 307 282 136 136 136 131 128 124 111 96 69 72 95 103